TimeMST,TemperatureF,Dew PointF,Humidity,Sea Level PressureIn,VisibilityMPH,Wind Direction,Wind SpeedMPH,Gust SpeedMPH,PrecipitationIn,Events,Conditions,WindDirDegrees,DateUTC
12:54 AM,37.9,15.1,39,29.82,10.0,WSW,15.0,-,N/A,,Clear,250,2013-02-06 07:54:00
1:54 AM,36.0,15.1,43,29.80,10.0,SW,8.1,-,N/A,,Clear,220,2013-02-06 08:54:00
2:54 AM,36.0,15.1,43,29.78,10.0,SW,10.4,-,N/A,,Clear,230,2013-02-06 09:54:00
3:54 AM,35.1,15.1,44,29.76,10.0,WSW,13.8,-,N/A,,Clear,240,2013-02-06 10:54:00
4:54 AM,35.1,14.0,42,29.76,10.0,WSW,15.0,-,N/A,,Clear,240,2013-02-06 11:54:00
5:54 AM,35.1,14.0,42,29.77,10.0,WSW,15.0,-,N/A,,Clear,240,2013-02-06 12:54:00
6:54 AM,34.0,12.9,42,29.78,10.0,WSW,19.6,-,N/A,,Clear,240,2013-02-06 13:54:00
8:54 AM,41.0,14.0,33,29.81,10.0,West,9.2,-,N/A,,Clear,280,2013-02-06 15:54:00
9:54 AM,51.1,12.0,21,29.77,10.0,Calm,Calm,-,N/A,,Clear,0,2013-02-06 16:54:00
10:54 AM,57.9,12.0,16,29.74,10.0,Variable,3.5,-,N/A,,Clear,0,2013-02-06 17:54:00
11:54 AM,60.1,10.9,14,29.68,10.0,SE,3.5,-,N/A,,Clear,140,2013-02-06 18:54:00
12:54 PM,61.0,10.9,14,29.65,10.0,SSE,4.6,-,N/A,,Clear,160,2013-02-06 19:54:00
1:27 PM,64.4,10.4,12,29.76,10.0,North,10.4,21.9,N/A,,Clear,350,2013-02-06 20:27:00
1:54 PM,63.0,10.0,13,29.64,10.0,NNE,10.4,16.1,N/A,,Clear,30,2013-02-06 20:54:00
2:54 PM,63.0,9.0,12,29.63,10.0,ENE,9.2,-,N/A,,Clear,60,2013-02-06 21:54:00
3:54 PM,57.9,12.0,16,29.68,10.0,NNE,12.7,-,N/A,,Clear,30,2013-02-06 22:54:00
4:54 PM,54.0,14.0,21,29.72,10.0,NNE,6.9,-,N/A,,Partly Cloudy,30,2013-02-06 23:54:00
5:54 PM,54.0,15.1,22,29.75,10.0,North,8.1,-,N/A,,Overcast,350,2013-02-07 00:54:00
6:54 PM,53.1,16.0,23,29.79,10.0,North,12.7,-,N/A,,Overcast,350,2013-02-07 01:54:00
7:54 PM,50.0,18.0,28,29.85,10.0,NNE,18.4,24.2,N/A,,Overcast,30,2013-02-07 02:54:00
8:54 PM,46.9,18.0,32,29.87,10.0,NE,10.4,-,N/A,,Overcast,40,2013-02-07 03:54:00
9:54 PM,45.0,19.0,36,29.87,10.0,NE,15.0,23.0,N/A,,Overcast,40,2013-02-07 04:54:00
10:54 PM,43.0,19.9,40,29.86,10.0,ENE,8.1,-,N/A,,Overcast,60,2013-02-07 05:54:00
11:54 PM,39.9,27.0,60,29.89,10.0,NE,12.7,-,N/A,,Overcast,50,2013-02-07 06:54:00